Terminal Aerodrome Forecast
Issued by NWS Midland/Odessa, TX

Home | Current Version | Previous Version | Text Only | Print | Product List | Glossary On
Versions: 1 2 3 4 5 6 7 8 9 10 11 12 13 14 15 16 17 18 19 20 21 22 23 24 25 26
000
FTUS44 KMAF 301159 AAA
TAFMAF
TAF AMD
KMAF 301159Z 3012/0112 15011KT P6SM BKN150
      TEMPO 3012/3014 -TSRA BKN090CB=

USA.gov is the U.S. government's official web portal to all federal, state and local government web resources and services.